Regional Weather Roundup
Issued by NWS

Home | Current Version | Previous Version | Text Only | Print | Product List | Glossary On
Versions: 1 2 3 4 5 6 7 8 9 10 11 12 13 14 15 16 17 18 19 20 21 22 23 24 25 26 27 28 29 30 31 32 33 34 35 36 37 38 39 40 41 42 43 44 45 46 47 48 49 50
000
ASUS45 KPSR 240310
RWRAZ

ARIZONA HOURLY REGIONAL WEATHER ROUNDUP
NATIONAL WEATHER SERVICE PHOENIX AZ
800 PM MST SAT MAY 23 2015

NOTE: FAIR INDICATES FEW OR NO CLOUDS BELOW 12,000 FEET WITH NO
SIGNIFICANT WEATHER AND/OR OBSTRUCTIONS TO VISIBILITY.

AZZ001>003-036-240400-
NORTHWEST ARIZONA

CITY           SKY/WX    TMP DP  RH WIND       PRES   REMARKS
BULLHEAD CITY  PTCLDY    82  37  20 SE21      29.79S
KINGMAN        MOCLDY    67  37  33 SW17      29.92S
$$

AZZ004>008-015-016-018-240400-
NORTH CENTRAL ARIZONA

CITY           SKY/WX    TMP DP  RH WIND       PRES   REMARKS
GRAND CANYON   CLOUDY    47  43  86 SW3       30.04S
WILLIAMS       CLOUDY    50  34  53 SW10G17   30.12S
PRESCOTT       PTCLDY    57  32  38 SW6       30.02R
FLAGSTAFF      CLOUDY    49  34  56 SW9       30.07S
PAYSON         CLEAR     57  34  41 W6        30.05R
PAGE           CLOUDY    54  50  86 SE3       29.95S
$$

AZZ009>014-017-240400-
NORTHEAST ARIZONA

CITY           SKY/WX    TMP DP  RH WIND       PRES   REMARKS
WINSLOW        CLOUDY    59  37  44 N5        30.00R
SAINT JOHNS    PTCLDY    58  27  30 W13       30.00R
WINDOW ROCK    CLOUDY    48  37  65 N7        30.06R
SHOW LOW       PTCLDY    50  28  43 SW7       30.07R
$$

AZZ023-240400-
GREATER PHOENIX AREA

CITY           SKY/WX    TMP DP  RH WIND       PRES   REMARKS
PHOENIX        PTCLDY    80  34  19 W8        29.87R
BUCKEYE        CLEAR     73  41  31 S5        29.89R
LUKE AFB       CLEAR     77  38  24 SW7       29.87R
SCOTTSDALE     CLEAR     76  33  21 W3        29.91R
MESA-FALCON    PTCLDY    75  36  23 W8        29.89R
MESA-GATEWAY   CLEAR     75  36  23 W7        29.91R
CHANDLER       CLEAR     77  36  22 W12       29.89R
$$

AZZ027-028-240400-
SOUTHWEST MARICOPA COUNTY AND PINAL COUNTY

CITY           SKY/WX    TMP DP  RH WIND       PRES   REMARKS
CASA GRANDE    CLEAR     75  36  23 W6        29.89R
GILA BEND      FAIR      77  35  21 W6        29.88R
$$

AZZ503-504-507>509-240400-
SOUTHEAST ARIZONA

CITY           SKY/WX    TMP DP  RH WIND       PRES   REMARKS
TUCSON         CLEAR     74  31  20 NW10      29.95R
DAVIS-MONTHAN  CLEAR     72  31  22 NW10      29.94R
RYAN FIELD       N/A     75  32  20 W7        29.95R
NOGALES        CLEAR     66  28  24 SW7       30.00R
SIERRA VISTA   CLEAR     64  23  21 W10       30.03R
DOUGLAS        CLEAR     66  19  16 W8        29.99R
SAFFORD        CLEAR     70  27  20 NW13      29.91R
$$

AZZ020-021-025-026-031-240400-
SOUTHWEST ARIZONA

CITY           SKY/WX    TMP DP  RH WIND       PRES   REMARKS
YUMA           CLEAR     80  42  25 SW10      29.87R
$$

CAZ031-033-041-043-047-048-061-240400-
SOUTHERN CALIFORNIA

CITY           SKY/WX    TMP DP  RH WIND       PRES   REMARKS
DOWNTOWN L.A.  CLOUDY    63  50  62 CALM      30.02R
L.A. AIRPORT   MOCLDY    60  54  80 W13       30.04R
SAN DIEGO      MOCLDY    64  53  67 W8        30.07R
BURBANK        CLOUDY    63  48  58 S7        30.02R
ONTARIO        CLOUDY    62  51  67 W12       30.02R
RIVERSIDE      CLOUDY    64  51  62 W7        30.01R
PALM SPRINGS   CLEAR     74  45  35 NW20G33   29.88R
EL CENTRO NAS  CLEAR     73  47  39 W20       29.90R
IMPERIAL       LGT RAIN  72  48  42 W16       29.87R
BLYTHE         CLEAR     80  43  26 S13       29.84S
NEEDLES        PTCLDY    82  36  19 SW14      29.81R
$$

NVZ020-UTZ003-240400-
SOUTHERN NEVADA-UTAH

CITY           SKY/WX    TMP DP  RH WIND       PRES   REMARKS
LAS VEGAS      MOCLDY    76  42  29 W10       29.77S
SALT LAKE CITY PTCLDY    57  43  59 NW8       29.93R
$$

NMZ009-TXZ055-240400-
NEW MEXICO-WEST TEXAS

CITY           SKY/WX    TMP DP  RH WIND       PRES   REMARKS
ALBUQUERQUE    MOCLDY    67  23  19 SW7       29.94R
EL PASO        CLEAR     76  13   9 W14       29.88R
$$


........................KEY........................
SKY/WX - SKY CONDITION/WEATHER
TMP    - TEMPERATURE IN FAHRENHEIT
DP     - DEW POINT IN FAHRENHEIT
RH     - RELATIVE HUMIDITY IN PERCENT
WIND   - DIRECTION AND SPEED IN MILES PER HOUR (MPH)
VRB    - VARIABLE WIND DIRECTION
PRES   - MEAN SEA LEVEL PRESSURE IN INCHES OF MERCURY
         F - FALLING PRESSURE   R - RISING PRESSURE
         S - STEADY PRESSURE
VSB    - VISIBILITY IN MILES
HX     - HEAT INDEX IN FAHRENHEIT
WCI    - WIND CHILL INDEX IN FAHRENHEIT
TC     - TEMPERATURE IN CELSIUS WHICH IS ALSO KNOWN AS
         TEMPERATURE IN CENTIGRADE
AFB    - AIR FORCE BASE
         LUKE AFB IS LUKE AIR FORCE BASE
         DAVIS-MONTHAN IS DAVIS-MONTHAN AIR FORCE BASE
NAS    - NAVAL AIR STATION
         EL CENTRO NAS IS EL CENTRO NAVAL AIR STATION
N/A    - NOT AVAILABLE




USA.gov is the U.S. government's official web portal to all federal, state and local government web resources and services.